Location: Unspecified
(0.0000°N, 0.0000°E)
Time: 18:23:27
(UTC+00:00)

SR - Visible Passes

Search period start: 18 April 2019 00:00
Search period end: 28 April 2019 00:00
Orbit: 584 x 872 km, 66.7° (Epoch: 17 April)

Date Brightness Start Highest point End Pass type
(mag) Time Alt. Az. Time Alt. Az. Time Alt. Az.
18 Apr ? 05:10:43 10° NNE 05:14:13 20° ENE 05:17:55 10° ESE visible
19 Apr ? 18:29:45 10° WSW 18:33:46 23° WNW 18:37:32 10° NNW visible
20 Apr ? 05:12:11 10° N 05:16:51 48° ENE 05:21:56 10° SE visible
21 Apr ? 04:24:05 10° NNE 04:27:25 18° ENE 04:30:56 10° ESE visible
22 Apr ? 05:14:41 10° NNW 05:19:33 68° WSW 05:24:53 10° SSE visible
23 Apr ? 04:25:25 10° N 04:30:03 44° ENE 04:35:06 10° SE visible
24 Apr ? 03:37:28 10° NNE 03:40:37 17° ENE 03:43:55 10° ESE visible
24 Apr ? 05:18:05 10° NW 05:22:21 28° WSW 05:26:55 10° S visible
25 Apr ? 04:27:50 10° NNW 04:32:44 75° WSW 04:38:07 10° SSE visible
26 Apr ? 03:42:55 40° ENE 03:43:15 41° ENE 03:48:14 10° SE visible
26 Apr ? 05:23:18 10° W 05:25:13 12° WSW 05:27:13 10° SW visible
27 Apr ? 04:38:08 20° SSW 04:38:08 20° SSW 04:40:15 10° S visible
